星链-32455 (STARLINK-32455)

导读

STARLINK-32455是美国SpaceX公司星链星座的第二代通信卫星,于2024年10月23日发射入轨。作为星链全球互联网组网的组成部分,它运行在近地轨道,配备增强型相控阵天线与激光星间链路,单星容量超100Gbps,可支持终端获得百兆以上宽带接入,服务偏远地区通信与全球网络覆盖,是第二代星链快速扩容过程中的一员。

Basic Information
目录编号:
61632
目录名称:
STARLINK-32455
国际标识:
2024-191M
轨道中心:
EARTH
卫星名称:
星链-32455
卫星全名:
星链-32455 (STARLINK-32455)
卫星状态:
在轨 (已飞行689 天)
发射日期:
2024-10-23 UTC
国别 :
美国 (US)
星等 :
--
This satellite is enrolled in the Space Conjunction Data Service (SCDS) and the current flight risk assessment level is: No High Risk
Orbit Information
数据来源 国际轨道数据 AOE轨道数据
星历时间 2026-09-11T14:15:08+0800
22小时前
查看轨道信息
2026-09-10T23:00:00+0800
1天前
查看轨道信息
半长轴 6861.202km 6861.198km
偏心率 0.000076 0.000011
轨道倾角 43.001° 43.000°
近地点辐角 277.653° 177.387°
升交点赤经 190.257° 193.848°
平近点角 82.423° 283.751°
近地点 482.543km 482.985km
远地点 483.587km 483.137km
周期 94.267分钟 94.267分钟
每日圈数 15.275748 15.275763
Detailed Information
固有亮度:
5
最大亮度:
2.5
卫星平台:
Starlink V1.0
覆盖范围:
全球
运营商:
太空探索技术公司
运营商所在国:
美国
制造商(研发单位):
太空探索技术公司
制造商所在国:
美国
使用方式:
暂无
Satellite Introduction
Starlink 计划是 SpaceX 推出的全球卫星互联网项目,通过发射低轨道卫星,为全球尤其是偏远地区提供高速、低延迟的互联网服务。自 2019 年起,Starlink 已部署数千颗卫星,旨在缩小全球数字鸿沟,推动互联网普及。该项目还为军事、航空等行业提供通信支持,带来广泛经济效益。
2D Orbit Map
3D Orbit Map
Orbit Altitude Analysis Chart
Orbit Inclination Analysis Chart
Orbit Comprehensive Analysis Chart
View Comprehensive Chart
Conjunction Data List
Event ID Objects TCA Miss Dist (km) Collision Risk Probability Collision Risk Index (CRI) Action
CDM_260913-151804-097506-163222
2026-09-13T
15:18:53+0000
1.904 km
极远距离
2.687531E-6 低风险 0.44
CDM_260914-042405-706106-163221
2026-09-14T
04:24:16+0000
2.865 km
极远距离
6.794222E-7 极低风险 0.32
Miss Distance Evolution Trend with All Objects
Collision Probability Evolution Trend with All Objects